[[{"header":{"parameterUnit":"m.s-1","parameterCategory":1,"la1":30.2991,"la2":30.254,"lo1":-89.0895,"lo2":-89.0444,"dy":0.0017,"dx":0.0017,"nx":28,"ny":28,"refTime":"2025-12-14T09:00:00:Z","depth":0,"parameterNumber":2,"parameterNumberName":"U-component_of_WINDS"},"data":[0,0,0,0,0,0,0,0,0,0,0,0,0,0,0,0,0,0,0,0,0,0,0,0,0,0,0,0,0,0,0,0,0,0,0,0,0,0,0,0,0,0,0,0,0,0,0,0,0,0,0,0,0,0,0,0,0,0,-2.8319,-2.8319,0,-2.8381,-2.8382,-2.8382,-2.8303,-2.83,-2.8297,-2.8295,-2.8359,-2.8363,-2.8368,0,0,0,0,0,0,0,0,0,0,0,0,0,-2.8131,-2.8135,-2.8319,-2.8319,-2.832,-2.8381,-2.8382,-2.8382,-2.8304,-2.83,-2.8297,-2.8293,-2.8358,-2.8363,-2.8368,0,0,0,0,0,0,0,0,0,0,0,0,0,-2.8205,-2.8136,-2.8318,-2.8288,-2.8286,-2.8381,-2.8382,-2.8383,-2.8304,-2.83,-2.8296,-2.8292,-2.8356,-2.8362,-2.8369,-2.8496,0,0,-2.8389,-2.8392,0,0,0,0,0,0,0,0,-2.8201,-2.8212,-2.8292,-2.829,-2.8288,-2.833,-2.8339,-2.8421,-2.8306,-2.8298,-2.8295,-2.829,-2.8353,-2.836,-2.8381,-2.8499,-2.8502,-2.839,-2.8394,-2.8397,-2.8398,0,0,0,0,0,0,0,-2.8196,-2.8209,-2.8343,-2.8293,-2.8291,-2.8271,-2.8277,-2.8354,-2.8349,-2.8298,-2.8292,-2.8301,-2.8351,-2.8375,-2.8382,-2.8503,-2.839,-2.8395,-2.84,-2.8402,-2.8728,-2.8733,0,0,0,0,0,0,-2.8194,-2.8205,-2.8341,-2.8345,-2.8233,-2.8278,-2.8284,-2.8321,-2.8348,-2.8348,-2.8304,-2.8297,-2.8365,-2.8374,-2.8384,-2.8535,-2.8397,-2.8403,-2.8407,-2.8724,-2.873,-2.8735,0,0,0,0,0,0,-2.8191,-2.8207,-2.8339,-2.8274,-2.8289,-2.8286,-2.8327,-2.8324,-2.8348,-2.8353,-2.8351,-2.8329,-2.8362,-2.8374,-2.8469,-2.8536,-2.8406,-2.8412,-2.8718,-2.8726,-2.8732,-2.8838,0,0,0,0,0,0,-2.8185,-2.8206,-2.8255,-2.8275,-2.8293,-2.8423,-2.8332,-2.8329,-2.8359,-2.835,-2.8376,-2.8376,-2.836,-2.8459,-2.8475,-2.8543,-2.8417,-2.8712,-2.8722,-2.873,-2.8828,-2.8848,-2.8864,0,0,0,0,0,-2.8179,-2.8283,-2.8258,-2.8275,-2.8353,-2.8427,-2.8437,-2.8417,-2.8365,-2.8414,-2.8417,-2.8375,-2.8525,-2.847,-2.8487,-2.8557,-2.8708,-2.8719,-2.8729,-2.882,-2.8844,-2.8864,0,0,0,0,0,0,-2.8271,-2.8285,-2.8258,-2.8371,-2.8399,-2.8414,-2.8475,-2.8442,-2.8486,-2.8475,-2.8447,-2.8454,-2.8555,-2.8565,-2.8503,-2.8681,-2.8608,-2.8623,-2.8672,-2.8694,-2.8711,-2.8708,-2.8422,0,0,0,0,0,-2.8305,-2.8364,-2.8372,-2.8471,-2.8486,-2.8479,-2.851,-2.8491,-2.8519,-2.8531,-2.854,-2.8569,-2.8622,-2.8658,-2.8708,-2.8829,-2.8833,-2.8885,-2.8903,-2.8918,-2.8931,-2.8996,-2.9019,-2.8769,-2.8769,-2.8769,0,0,-2.8375,-2.8389,-2.8428,-2.849,-2.8509,-2.8571,-2.8489,-2.8558,-2.8603,-2.8541,-2.8631,-2.8639,-2.8669,-2.8777,-2.8825,-2.8789,-2.9001,-2.8931,-2.8943,-2.8949,-2.9009,-2.9032,-2.9054,-2.8777,-2.8775,-2.8774,0,0,-2.8534,-2.8551,-2.8635,-2.8655,-2.8685,-2.8679,-2.8699,-2.8719,-2.8722,-2.8812,-2.8766,-2.8819,-2.8912,-2.8935,-2.8959,-2.9125,-2.9088,-2.9141,-2.9235,-2.9298,-2.9318,-2.9335,-2.9395,-2.9417,-2.9154,-2.9155,-2.9155,0,-2.8617,-2.8708,-2.8682,-2.8755,-2.8783,-2.8728,-2.8813,-2.8834,-2.8879,-2.89,-2.8858,-2.8973,-2.8989,-2.9101,-2.9142,-2.9163,-2.9185,-2.9139,-2.9317,-2.9334,-2.935,-2.9407,-2.9429,-2.9161,-2.916,-2.916,-2.9159,0,-2.881,-2.8873,-2.8938,-2.8982,-2.9017,-2.9095,-2.9081,-2.912,-2.9097,-2.9095,-2.9187,-2.9204,-2.9256,-2.928,-2.926,-2.939,-2.9367,-2.9322,-2.9248,-2.9381,-2.9433,-2.9455,-2.917,-2.9168,-2.9166,-2.9164,0,0,-2.9031,-2.9058,-2.9083,-2.9102,-2.9129,-2.9178,-2.9253,-2.9303,-2.9337,-2.9369,-2.9432,-2.951,-2.9468,-2.9495,-2.9476,-2.9531,-2.9662,-2.9479,-2.948,-2.9514,-2.9807,-2.9842,-2.9867,-2.9637,-2.9641,-2.9644,-2.9804,0,-2.9191,-2.9321,-2.9299,-2.9426,-2.9484,-2.9432,-2.9497,-2.9521,-2.952,-2.957,-2.9568,-2.9625,-2.9565,-2.9581,-2.9633,-2.9635,-2.9721,-2.9623,-2.9695,-2.9698,-2.9691,-2.9894,-2.9932,-3.0083,-2.9825,-2.9828,-2.9831,0,-2.9396,-2.9435,-2.9567,-2.9585,-2.9608,-2.9667,-2.9711,-2.9758,-2.9784,-2.978,-2.9809,-2.9779,-2.9854,-2.9777,-2.9879,-2.9813,-2.9841,-2.9846,-2.9851,-2.9859,-2.9774,-2.9908,-3.013,-3.0154,-2.9863,-2.986,-2.9858,0,-2.9545,-2.963,-2.972,-2.9738,-2.9761,-2.9804,-2.9815,-2.9836,-2.9867,-2.9905,-2.9925,-2.9971,-2.9997,-3.0033,-3.0016,-2.9961,-3.0121,-3.0043,-3.012,-3.012,-3.0158,-3.0156,-3.0388,-3.0173,-3.0173,-3.0172,-3.0172,0,-2.9727,-2.981,-2.9788,-2.9844,-2.9935,-2.9908,-2.9999,-3.0003,-3.0023,-3.0078,-3.0035,-3.0087,-3.0061,-3.0112,-3.0099,-3.0185,-3.0197,-3.0196,-3.0192,-3.0201,-3.0201,-3.022,-3.0209,-3.0178,-3.0177,-3.0176,-3.0175,0,-2.9911,-2.9899,-2.9993,-3.0006,-3.0012,-3.0078,-3.0089,-3.0141,-3.0136,-3.0207,-3.0222,-3.0214,-3.0272,-3.0258,-3.032,-3.0311,-3.0421,-3.0402,-3.0412,-3.0409,-3.0486,-3.048,-3.074,-3.0773,-3.0536,-3.0538,-3.054,0,-3.0028,-3.0091,-3.011,-3.0144,-3.0159,-3.0214,-3.0245,-3.022,-3.0254,-3.0287,-3.0335,-3.0388,-3.043,-3.0523,-3.0524,-3.0571,-3.0554,-3.0642,-3.0561,-3.0568,-3.0557,-3.0554,-3.056,-3.0659,-3.0662,-3.0664,-3.0666,0,-3.0239,-3.0229,-3.0276,-3.0321,-3.0359,-3.0393,-3.0423,-3.0453,-3.043,-3.0471,-3.0528,-3.0561,-3.0624,-3.0677,-3.072,-3.0731,-3.0696,-3.0691,-3.0711,-3.0722,-3.0726,-3.0726,-3.0458,-3.0686,-3.0684,-3.0682,-3.0681,-3.068,-3.0394,-3.0447,-3.0468,-3.0522,-3.0541,-3.057,-3.0619,-3.0619,-3.0667,-3.0717,-3.0698,-3.0765,-3.0787,-3.0841,-3.0857,-3.0908,-3.0875,-3.0905,-3.0912,-3.0921,-3.0931,-3.0716,-3.0916,-3.0915,-3.0915,-3.0914,-3.0914,0,-3.0603,-3.0613,-3.0663,-3.0705,-3.0747,-3.0708,-3.0738,-3.0776,-3.0835,-3.0859,-3.09,-3.0966,-3.1017,-3.102,-3.1068,-3.1108,-3.1093,-3.1122,-3.1119,-3.1122,-3.0957,-3.0935,-3.1133,-3.1133,-3.1133,-3.1133,-3.1133,-3.1133,-3.0717,-3.0804,-3.0797,-3.0894,-3.0903,-3.0968,-3.0989,-3.1015,-3.1033,-3.1109,-3.1151,-3.1152,-3.1168,-3.1216,-3.1261,-3.126,-3.128,-3.1316,-3.1309,-3.1156,-3.1134,-3.1113,-3.1092,-3.132,-3.132,-3.147,-3.1471,-3.1473]},{"header":{"parameterUnit":"m.s-1","parameterCategory":1,"la1":30.2991,"la2":30.254,"lo1":-89.0895,"lo2":-89.0444,"dy":0.0017,"dx":0.0017,"nx":28,"ny":28,"refTime":"2025-12-14T09:00:00:Z","depth":0,"parameterNumber":3,"parameterNumberName":"V-component_of_WINDS"},"data":[0,0,0,0,0,0,0,0,0,0,0,0,0,0,0,0,0,0,0,0,0,0,0,0,0,0,0,0,0,0,0,0,0,0,0,0,0,0,0,0,0,0,0,0,0,0,0,0,0,0,0,0,0,0,0,0,0,0,-8.1728,-8.1729,0,-8.1854,-8.1856,-8.1857,-8.1754,-8.175,-8.1745,-8.1741,-8.1865,-8.1872,-8.1879,0,0,0,0,0,0,0,0,0,0,0,0,0,-8.139,-8.1397,-8.1728,-8.1729,-8.1731,-8.1854,-8.1856,-8.1858,-8.1755,-8.1749,-8.1744,-8.1739,-8.1863,-8.1871,-8.188,0,0,0,0,0,0,0,0,0,0,0,0,0,-8.1528,-8.1399,-8.1727,-8.1694,-8.1693,-8.1854,-8.1856,-8.1858,-8.1756,-8.1749,-8.1743,-8.1737,-8.186,-8.1871,-8.1881,-8.208,0,0,-8.1915,-8.192,0,0,0,0,0,0,0,0,-8.1521,-8.1541,-8.1698,-8.1697,-8.1695,-8.1782,-8.1782,-8.1932,-8.1757,-8.1732,-8.1741,-8.1733,-8.1842,-8.1854,-8.1892,-8.2086,-8.2091,-8.1916,-8.1923,-8.1927,-8.1931,0,0,0,0,0,0,0,-8.1511,-8.1535,-8.1777,-8.17,-8.1699,-8.1671,-8.1684,-8.181,-8.1822,-8.1733,-8.1726,-8.1743,-8.184,-8.1882,-8.1894,-8.2093,-8.1916,-8.1926,-8.1932,-8.1937,-8.2453,-8.246,0,0,0,0,0,0,-8.1506,-8.1528,-8.1773,-8.1781,-8.159,-8.1683,-8.1696,-8.1761,-8.182,-8.1823,-8.1748,-8.1738,-8.1866,-8.1882,-8.1898,-8.2133,-8.1927,-8.1938,-8.1944,-8.2446,-8.2454,-8.2462,0,0,0,0,0,0,-8.1499,-8.1529,-8.1768,-8.1653,-8.1681,-8.1695,-8.1768,-8.1766,-8.1808,-8.1832,-8.1832,-8.1789,-8.1862,-8.1883,-8.2035,-8.2136,-8.1943,-8.1953,-8.2437,-8.2448,-8.2458,-8.2606,0,0,0,0,0,0,-8.149,-8.1527,-8.1604,-8.1655,-8.1688,-8.1906,-8.1774,-8.1774,-8.1828,-8.1815,-8.187,-8.1873,-8.1858,-8.202,-8.2046,-8.2148,-8.1961,-8.2428,-8.2442,-8.2455,-8.2592,-8.2621,-8.2645,0,0,0,0,0,-8.1478,-8.164,-8.1609,-8.1639,-8.1785,-8.1912,-8.193,-8.1912,-8.1837,-8.1913,-8.1928,-8.1871,-8.2121,-8.2036,-8.2065,-8.2172,-8.2422,-8.2438,-8.2454,-8.2581,-8.2615,-8.2644,0,0,0,0,0,0,-8.1599,-8.1646,-8.1612,-8.1796,-8.1851,-8.1894,-8.1991,-8.1949,-8.2026,-8.201,-8.1982,-8.1995,-8.2156,-8.2179,-8.2083,-8.2366,-8.2259,-8.2282,-8.2345,-8.2378,-8.2404,-8.2395,-8.197,0,0,0,0,0,-8.1647,-8.1749,-8.1783,-8.1942,-8.1972,-8.1977,-8.2031,-8.2013,-8.2068,-8.209,-8.2116,-8.217,-8.226,-8.232,-8.2405,-8.2595,-8.2604,-8.2682,-8.2709,-8.273,-8.275,-8.285,-8.2885,-8.2515,-8.2514,-8.2514,0,0,-8.1747,-8.1786,-8.1851,-8.1967,-8.2008,-8.2111,-8.1997,-8.2112,-8.2187,-8.2106,-8.2253,-8.2274,-8.2332,-8.2504,-8.2581,-8.2528,-8.2854,-8.275,-8.2767,-8.2776,-8.287,-8.2905,-8.2937,-8.2525,-8.2523,-8.2522,0,0,-8.1983,-8.2023,-8.2159,-8.2202,-8.2266,-8.2268,-8.23,-8.2351,-8.2362,-8.2508,-8.245,-8.2538,-8.2695,-8.2738,-8.2781,-8.3032,-8.2982,-8.306,-8.3197,-8.3295,-8.3324,-8.335,-8.3439,-8.3471,-8.308,-8.308,-8.308,0,-8.2099,-8.2255,-8.2234,-8.2353,-8.2405,-8.2338,-8.2474,-8.2516,-8.2603,-8.264,-8.2579,-8.2774,-8.2809,-8.2989,-8.3051,-8.3088,-8.3122,-8.3054,-8.3322,-8.3348,-8.3371,-8.3455,-8.3489,-8.3089,-8.3088,-8.3087,-8.3086,0,-8.2394,-8.2503,-8.2605,-8.2693,-8.2756,-8.2883,-8.2878,-8.2944,-8.292,-8.2927,-8.3076,-8.3115,-8.3206,-8.3247,-8.3223,-8.3424,-8.3389,-8.3327,-8.3218,-8.3416,-8.3495,-8.3527,-8.3102,-8.3099,-8.3096,-8.3094,0,0,-8.271,-8.2784,-8.2822,-8.286,-8.2925,-8.3007,-8.313,-8.3221,-8.3277,-8.3339,-8.344,-8.3574,-8.3516,-8.3564,-8.3544,-8.3631,-8.3826,-8.3557,-8.3558,-8.3605,-8.4048,-8.4094,-8.4132,-8.3793,-8.3799,-8.3804,-8.4042,0,-8.2948,-8.3165,-8.3149,-8.3352,-8.3451,-8.3388,-8.3494,-8.3544,-8.3555,-8.3638,-8.3648,-8.3743,-8.366,-8.3688,-8.3771,-8.3785,-8.3914,-8.3767,-8.3885,-8.3889,-8.3872,-8.4173,-8.4224,-8.4447,-8.4073,-8.4078,-8.4082,0,-8.3255,-8.333,-8.3544,-8.3592,-8.3633,-8.373,-8.381,-8.3892,-8.3946,-8.3947,-8.4001,-8.3966,-8.4087,-8.3977,-8.4142,-8.4043,-8.4089,-8.4103,-8.4111,-8.4121,-8.3998,-8.4191,-8.4518,-8.4552,-8.413,-8.4126,-8.4123,0,-8.3464,-8.3617,-8.3764,-8.3799,-8.3859,-8.3929,-8.3956,-8.4004,-8.4059,-8.4129,-8.4164,-8.4246,-8.4291,-8.4355,-8.4342,-8.4263,-8.4511,-8.4399,-8.4513,-8.4514,-8.4568,-8.4565,-8.4907,-8.4599,-8.4599,-8.4598,-8.4598,0,-8.3731,-8.3864,-8.3859,-8.395,-8.4096,-8.4074,-8.4219,-8.4238,-8.4281,-8.4373,-8.4322,-8.4409,-8.4387,-8.4472,-8.4463,-8.46,-8.4621,-8.4624,-8.462,-8.4629,-8.4628,-8.4658,-8.4642,-8.4607,-8.4605,-8.4603,-8.4602,0,-8.3989,-8.3991,-8.4147,-8.4192,-8.4206,-8.4312,-8.4348,-8.4433,-8.4438,-8.4555,-8.458,-8.4589,-8.4686,-8.468,-8.4789,-8.4783,-8.4953,-8.493,-8.4935,-8.493,-8.5045,-8.5034,-8.5418,-8.5467,-8.5128,-8.5131,-8.5134,0,-8.416,-8.4261,-8.4316,-8.4375,-8.4408,-8.4503,-8.4559,-8.4541,-8.4601,-8.467,-8.4745,-8.4838,-8.4912,-8.507,-8.5084,-8.5167,-8.5146,-8.5275,-8.5158,-8.5163,-8.5147,-8.5141,-8.515,-8.5298,-8.5302,-8.5305,-8.5307,0,-8.4462,-8.4458,-8.4542,-8.4627,-8.4695,-8.476,-8.482,-8.487,-8.4858,-8.4927,-8.5027,-8.5084,-8.5196,-8.5289,-8.5368,-8.5393,-8.5348,-8.5344,-8.5374,-8.5384,-8.5383,-8.5385,-8.4998,-8.5335,-8.5332,-8.533,-8.5329,-8.5328,-8.4681,-8.4767,-8.482,-8.4915,-8.4958,-8.5014,-8.5096,-8.5112,-8.5196,-8.5287,-8.527,-8.5382,-8.5431,-8.5532,-8.5566,-8.5651,-8.5605,-8.5649,-8.566,-8.5672,-8.5685,-8.537,-8.5665,-8.5665,-8.5664,-8.5663,-8.5663,0,-8.498,-8.5011,-8.5098,-8.5184,-8.5258,-8.5211,-8.5273,-8.5338,-8.5437,-8.5488,-8.5562,-8.5675,-8.5764,-8.5786,-8.587,-8.5935,-8.5916,-8.5957,-8.5952,-8.5959,-8.5722,-8.5687,-8.5971,-8.5971,-8.5971,-8.5971,-8.5971,-8.5971,-8.5145,-8.5288,-8.529,-8.5453,-8.5482,-8.5593,-8.5633,-8.5683,-8.5724,-8.5854,-8.5928,-8.5942,-8.598,-8.6067,-8.6146,-8.6149,-8.6183,-8.6233,-8.6228,-8.6006,-8.5975,-8.5946,-8.5913,-8.624,-8.624,-8.6457,-8.6459,-8.6461]}]]